Вернуться в каталог

SL-3 DEB

АктивенSSO
NORAD 14209·DEBRIS·🇷🇺 Russia

Запущен Jul 24, 1983 с Baikonur Cosmodrome

Loading…

Ближайшие Пролёты (ближайшие 24 часа)

TLE

СвежийSource: Space-Track

Эпоха: Sep 14, 2026, 10:35 UTC

1 14209U 83075C   26257.44146018  .00012203  00000-0  19258-3 0  9995
2 14209  97.2132 247.7964 0015424  80.0855 280.2139 15.53523759368099

Отслеживайте SL-3 DEB в реальном времени с AllMySat

Download on the App Store